Regional Weather Roundup
Issued by NWS San Diego, CA

Home | Current Version | Previous Version | Text Only | Print | Product List | Glossary On
Versions: 1 2 3 4 5 6 7 8 9 10 11 12 13 14 15 16 17 18 19 20 21 22 23 24 25 26 27 28 29 30 31 32 33 34 35 36 37 38 39 40 41 42 43 44 45 46 47 48 49 50
000
ASUS46 KSGX 020910
RWRSGX

SAN DIEGO HOURLY WEATHER ROUNDUP
NATIONAL WEATHER SERVICE SAN DIEGO CA
200 AM PDT TUE SEP 02 2014

NOTE: "FAIR" INDICATES FEW OR NO CLOUDS BELOW 12,000 FEET WITH NO
SIGNIFICANT WEATHER AND/OR OBSTRUCTIONS TO VISIBILITY.

CAZ042-043-060-061-PZZ750-775-021000-

GREATER SAN DIEGO AREA

CITY           SKY/WX    TMP DP  RH WIND       PRES   REMARKS
LINDBERGH FLD  CLOUDY    70  61  73 S7        29.85F
POINT LOMA       N/A     68  63  84 SE7         N/A
NATIONAL CITY    N/A     69  64  83 CALM      29.85F
IMPERIAL BEACH CLOUDY    70  63  78 S7        29.85S
BROWN FIELD    CLOUDY    66  62  87 VRB5      29.85F
MIRAMAR MCAS   MOCLDY    68  61  78 S6        29.85S
MONTGOMERY FLD CLOUDY    68  62  81 S5        29.85S

$$

NORTH SAN DIEGO COUNTY

CITY           SKY/WX    TMP DP  RH WIND       PRES   REMARKS
CAMP PENDLETON CLOUDY    68  62  81 SE6       29.84F HAZE
OCEANSIDE AP   CLOUDY    69  62  78 E3        29.83F
OCEANSIDE HBR    N/A     69  64  85 E2        29.86S
VISTA            N/A     64  60  87 CALM      29.82F
CARLSBAD       CLOUDY    68  62  81 E6        29.84S
DEL MAR          N/A     67  64  88 SW1       29.86F
LA JOLLA SCRIP   N/A     67  64  88 S3        29.81F
FALLBROOK        N/A     65  65 100 CALM      29.85S
ESCONDIDO        N/A     66  63  89 S2        29.85F
SAN MARCOS       N/A     65  61  86 CALM      29.82F
POWAY            N/A     66  62  85 CALM      29.85S

$$

EAST SAN DIEGO COUNTY

CITY           SKY/WX    TMP DP  RH WIND       PRES   REMARKS
RAMONA         FOG       58  57  97 CALM      29.87S VSB<1/4
SANTEE LAKES     N/A     66  62  88 CALM      29.86S
LA MESA          N/A     67  64  89 CALM      29.79S
JAMUL            N/A     62  60  94 CALM      29.84R
DESCANSO N       N/A     69  36  29 E3        29.68F
MT. LAGUNA OBS   N/A     64  24  21 S2        29.70S
CAMPO            N/A     57  36  45 E6        29.89S

$$

ORANGE COUNTY AND THE LOS ANGELES BASIN

CITY           SKY/WX    TMP DP  RH WIND       PRES   REMARKS
JOHN WAYNE AP  CLOUDY    72  63  73 SE7       29.83F
LAGUNA BEACH     N/A     70  65  83 CALM      29.79F
LAKE FOREST FR   N/A     64  59  85 SW3       29.73F
SANTA ANA        N/A     69  65  88 CALM      29.79S
HUNTINGTON BCH   N/A     69  65  86 S5        29.85S
LOS ALAMITOS   FAIR      68  64  85 VRB3      29.83S
FULLERTON      PTCLDY    69  63  81 SE5       29.83R
LONG BEACH     PTCLDY    68  63  84 CALM      29.83S
L.A. AP        PTCLDY    69  63  81 SE3       29.84R
L.A. DOWNTOWN  CLEAR     69  63  81 SE3       29.83S

$$

THE INLAND EMPIRE

CITY           SKY/WX    TMP DP  RH WIND       PRES   REMARKS
CORONA         CLEAR     65  62  90 W3        29.85R
CHINO          CLEAR     64  61  90 W5        29.85S
ONTARIO        CLEAR     67  61  81 W6        29.84S
RIVERSIDE AP   CLEAR     68  61  78 W5        29.85R
RIV CYN CREST    N/A     69  68  96 N1        29.81S
MORENO VALLEY    N/A     67  44  42 CALM      29.04S
MARCH ARB      CLEAR     65  55  71 NW2       29.86S
HORSETHIEF CYN   N/A     64  44  48 SW3       29.84R
PERRIS           N/A     69  58  68 CALM      29.84R
MENIFEE          N/A     67  53  60 CALM      29.90R
HEMET EAST       N/A     70  36  28 CALM      29.80F
FRENCH VALLEY  FAIR      63  59  88 CALM      29.86F
TEMECULA         N/A     65  62  91 CALM      29.84R

$$

SAN BERNARDINO AND RIVERSIDE COUNTY MOUNTAINS

CITY           SKY/WX    TMP DP  RH WIND       PRES   REMARKS
BIG BEAR AP    CLEAR     45  27  49 CALM      30.18F
ANGELUS OAKS     N/A     61  36  39 CALM      29.69F
PINE COVE        N/A     66  34  30 CALM      29.67F

$$

SOUTHERN DESERT INCLUDING THE COACHELLA VALLEY

CITY           SKY/WX    TMP DP  RH WIND       PRES   REMARKS
PALM SPRINGS   CLEAR     86  35  16 CALM      29.73F
THOUSAND PALMS   N/A     89  35  15 W12       29.67S
PALM DESERT      N/A     81  48  31 CALM      30.79
THERMAL        CLEAR     86  34  15 N7        29.66S
BLYTHE         CLEAR     86  50  28 S6        29.71S
IMPERIAL AP    CLEAR     86  44  23 CALM      29.68R
YUMA AZ        CLEAR     89  41  18 SE12      29.70S

$$

UPPER DESERT

CITY           SKY/WX    TMP DP  RH WIND       PRES   REMARKS
VICTORVILLE AP CLEAR     70  39  32 CALM      29.90S
HESPERIA         N/A     70  41  34 CALM      29.84F
APPLE VALLEY     N/A     69  48  46 CALM      29.97S
PALMDALE       CLEAR     72  38  29 S9        29.88S
LANCASTER      CLEAR     75  38  26 SW8       29.86F
EDWARDS AFB    CLEAR     72  38  29 S13       29.84S
DAGGETT        CLEAR     79  40  24 W9        29.82F
29 PALMS N     CLEAR     81  34  18 NW7       29.88F
NEEDLES        CLEAR     88  35  15 W7        29.73S

$$

REGIONAL REPORTS

CITY           SKY/WX    TMP DP  RH WIND       PRES   REMARKS
SANTA BARBARA  CLOUDY    66  62  87 E5        29.81S
SANDBERG       CLEAR     72  42  34 W10       30.02F
MT. WILSON       N/A     68  -6   5 E12         N/A
LAS VEGAS NV   CLEAR     85  33  15 SW7       29.78S
PHOENIX AZ     PTCLDY    89  50  26 CALM      29.77R
TIJUANA          N/A    N/A N/A N/A MISG        N/A
ENSENADA NW      N/A     68  32  26 W2        29.83S

$$

OFFSHORE ISLANDS

CITY           SKY/WX    TMP DP  RH WIND       PRES   REMARKS
CATALINA ARPT  CLOUDY    63  60  90 CALM      29.87S
SAN NICOLAS IS CLOUDY   N/A N/A N/A CALM      29.83S

$$

MARINE AND OFFSHORE BUOY REPORTS

STATION/POSITION SKY/WX   TEMP    WIND        PRES    SWELL
                          AIR SEA DIR/SP/G            HT/PER/DIR
                          (F)     (DEG/KT/KT) (MB)    (FT/S/D)
TANNER BANKS               65 69  320/ 10/ 16 1010.5F
S CLEMENTE BASIN           69 72  270/ 10/ 12 1009.9F   3/210/14
SAN NICOLAS IS.               64                N/A     3/190/14
SO. S. ROSA ISLA           62 67  300/ 14/ 17 1009.2F   3/ 8
W. S. BARBARA CH           60 63  320/ 16/ 17 1008.6F   5/310/10
S. MONICA BASIN            67 72   CALM  /  2 1009.6S   3/210/14
S PEDRO CHANNEL               71                N/A     2/180/15
DANA POINT                    74                N/A     2/200/14
CMP PENDLETON NS              74                N/A     2/220/14
OCEANSIDE OFFSHR              74                N/A     3/220/14
TORREY PINES OTR              74                N/A     2/210/15
LA JOLLA 1                 69 69  160/  6/ 11 1010.4F
MISSION BAY BUOY              73                N/A     2/210/14
SAN DIEGO BAY                 75              1011.0S
POINT LOMA SOUTH              74                N/A     3/210/14

$$



USA.gov is the U.S. government's official web portal to all federal, state and local government web resources and services.